Theta_e
313 311 311 311 312 314 315 316 316 316 315 313 311 310 308 306 306 306 307 309 310 310 310 312 312 312 314 314 314 314 313 313 312 311 311 309 311 311 310 309 308 309 310 311
310 311 311 312 312 311 311 317 318 315 313 312 310 309 307 305 304 304 306 307 308 309 310 310 311 311 312 311 311 311 312 311 311 309 310 310 311 310 309 308 308 310 312 312
311 311 310 311 311 312 311 314 315 317 312 310 310 311 308 305 304 305 305 305 307 307 308 308 309 310 310 310 310 310 310 309 309 309 310 310 310 310 310 309 309 310 311 312
310 309 310 310 312 312 313 312 313 314 312 313 312 313 309 306 304 303 303 303 304 306 306 307 307 308 308 308 308 308 308 308 308 308 308 308 309 310 311 311 311 311 311 312
312 309 309 311 312 312 313 311 313 312 312 311 313 315 311 306 306 303 301 301 302 303 305 305 306 306 306 306 306 306 306 307 307 307 307 308 308 310 309 308 309 310 310 310
309 310 309 310 311 311 311 314 314 313 312 314 310 315 313 308 307 302 299 299 299 301 302 303 304 304 304 305 305 305 305 306 306 306 306 307 308 308 308 307 308 308 309 309
310 310 309 310 312 312 314 316 317 314 313 313 312 313 313 304 303 301 298 297 297 299 300 301 302 303 302 303 304 304 304 305 305 305 305 306 306 307 306 306 306 307 308 308
309 310 309 309 310 311 314 316 316 317 316 314 311 317 312 302 300 299 297 296 295 296 297 298 298 299 300 301 302 302 303 304 304 304 304 303 303 304 305 305 305 305 306 306
309 309 308 309 309 310 312 312 312 312 307 314 313 307 302 299 298 297 295 295 294 294 294 295 296 297 298 299 300 301 301 301 302 302 302 302 302 302 302 302 302 302 303 304
308 309 307 308 309 309 310 310 314 310 311 315 311 311 310 302 299 297 295 294 293 293 293 294 294 295 296 297 298 299 299 300 299 299 299 299 299 299 299 299 300 300 300 301
306 308 308 308 309 309 309 311 310 311 310 314 312 312 303 303 299 296 295 294 293 293 293 293 294 295 295 296 297 297 297 298 298 298 298 298 298 298 299 299 299 299 299 299
310 307 308 308 306 307 308 310 310 311 312 307 309 307 299 301 298 296 294 294 293 293 293 293 294 294 295 295 295 295 295 295 295 294 293 293 292 292 292 291 291 291 291 291
310 302 303 309 306 306 308 308 308 307 307 308 309 307 297 297 296 295 294 293 293 293 292 293 293 293 293 292 291 291 290 289 288 288 288 288 288 288 288 288 288 288 288 288
311 307 306 310 308 308 308 308 307 308 308 308 307 303 298 297 296 294 293 293 293 292 291 291 291 290 289 288 288 287 287 287 287 287 288 288 288 288 287 287 287 287 287 287
309 310 309 309 309 308 307 308 307 307 308 309 307 304 301 298 296 294 294 293 292 291 290 290 289 287 287 286 286 286 286 286 286 287 287 287 286 286 286 286 286 286 286 286
307 310 308 310 308 307 308 308 306 306 306 306 304 304 301 298 296 294 293 293 292 291 289 288 287 286 286 286 286 286 286 286 286 286 286 286 286 286 286 286 286 285 285 285
308 308 308 307 308 308 311 310 307 306 304 304 306 304 298 296 295 294 293 293 292 291 290 288 287 286 286 285 285 285 285 285 286 286 285 285 285 285 285 285 285 285 285 285
308 307 306 306 308 312 306 300 302 305 300 301 300 299 298 297 297 295 294 294 293 292 289 287 286 285 285 285 285 285 285 285 285 285 285 285 285 285 285 285 285 285 285 285
303 307 304 309 306 304 303 299 303 307 308 299 300 297 294 295 295 293 295 296 296 294 291 288 286 286 285 285 285 284 284 285 284 284 284 284 284 284 284 284 284 284 283 283
300 302 306 295 306 306 306 298 300 301 307 299 298 295 294 295 297 294 294 295 294 293 289 286 285 285 285 284 284 284 284 284 284 284 284 284 283 283 283 283 282 282 282 282
303 301 305 297 300 298 298 297 299 307 306 298 298 295 295 297 297 297 295 294 294 290 288 286 285 285 284 284 284 284 284 284 284 283 283 283 282 282 282 281 281 281 281 281
301 302 302 295 299 305 296 297 303 300 297 297 297 296 295 297 298 296 295 294 291 288 286 285 285 285 284 284 284 284 283 283 283 282 282 282 282 282 281 281 281 281 280 280
299 296 299 299 301 291 297 296 299 298 298 297 298 296 296 298 297 295 294 292 289 288 287 286 285 284 284 284 283 283 283 283 282 282 281 281 282 281 281 281 280 280 280 280
288 285 291 295 290 289 296 296 298 298 299 299 300 298 297 298 296 295 292 289 288 287 286 285 284 284 284 284 283 283 283 282 282 281 281 281 281 281 280 280 280 279 279 278
289 288 289 290 290 291 294 297 298 297 299 299 299 299 297 298 295 295 291 289 288 287 286 285 285 284 284 284 283 283 282 282 282 281 281 281 280 280 279 279 279 278 278 277
287 289 293 295 295 296 297 299 297 297 298 299 299 297 297 298 296 293 290 289 287 286 285 285 284 284 284 284 283 283 282 282 281 281 281 280 280 280 279 279 278 278 277 276
Wind_Speed
6 4 5 9 8 10 16 5 11 5 3 6 5 4 6 10 15 15 16 17 19 18 16 17 17 15 15 11 8 4 2 1 1 1 2 4 7 9 10 10 8 7 8 10
4 7 8 5 3 2 4 16 15 5 4 5 4 4 5 8 7 9 13 14 12 13 14 15 12 11 10 7 6 4 2 3 2 1 3 5 7 10 9 9 7 7 9 10
8 5 10 6 4 2 2 4 7 5 3 5 6 2 4 3 9 11 11 12 9 12 14 12 10 11 9 7 7 5 5 4 4 4 4 5 6 6 6 8 8 7 8 10
4 4 10 7 4 5 3 4 6 4 3 3 4 4 3 5 4 5 6 7 8 10 11 11 11 10 10 10 7 6 5 4 4 4 3 4 4 7 11 11 10 8 8 10
5 7 5 5 7 8 3 3 3 4 3 2 1 2 1 6 3 4 3 5 6 8 8 9 10 9 7 6 7 7 6 4 5 6 7 8 9 9 8 7 7 7 7 9
3 2 5 7 3 6 4 5 6 4 3 0 7 6 4 5 5 5 5 5 6 6 5 6 6 5 3 5 5 5 5 6 6 7 8 9 8 7 8 7 5 6 6 7
2 2 2 5 6 5 2 7 3 3 2 4 3 3 4 5 4 9 12 8 6 5 5 5 3 3 4 4 5 5 5 5 6 7 7 9 8 7 8 8 9 7 7 8
6 2 6 3 7 8 7 8 5 6 4 4 2 6 2 4 11 15 13 11 8 7 6 6 6 5 5 5 5 5 5 5 6 6 6 7 5 7 7 8 8 9 9 10
6 4 2 2 3 9 6 5 5 3 1 2 4 2 3 7 8 12 14 12 10 7 6 7 7 7 7 8 8 8 7 7 7 7 7 7 7 7 7 7 7 8 8 9
6 4 1 3 3 1 6 7 3 1 4 5 4 4 5 13 13 9 12 15 13 10 8 8 8 9 10 12 12 12 12 12 13 12 12 13 13 13 13 11 11 12 11 10
5 3 3 5 6 8 3 4 4 3 4 4 3 5 2 13 15 14 15 17 16 13 11 10 10 11 12 14 14 16 16 16 16 16 16 15 16 16 15 15 16 17 16 17
4 5 3 5 2 1 1 5 6 4 4 3 2 4 5 7 18 21 19 19 16 14 13 12 12 12 13 14 15 16 16 15 16 15 14 14 15 15 15 16 16 16 17 17
7 1 3 3 4 1 5 5 5 4 3 6 5 4 4 12 15 20 24 22 19 17 15 14 13 13 14 15 16 16 16 16 15 14 13 13 14 14 15 15 16 16 16 17
5 3 5 8 2 6 6 6 5 5 3 4 5 4 6 9 13 19 22 25 22 18 15 15 15 15 15 16 16 15 14 14 13 12 12 13 14 15 15 15 15 16 17 17
5 5 4 2 2 2 3 8 10 9 8 7 6 8 10 17 15 24 28 27 25 21 18 16 16 17 16 15 14 13 12 11 11 11 11 13 13 13 13 14 16 16 17 18
1 4 4 2 2 3 1 5 8 6 5 3 5 5 2 22 23 24 29 31 28 24 21 19 18 18 17 15 13 11 11 10 10 10 11 11 11 11 13 13 14 15 16 18
6 6 3 3 3 1 5 11 9 5 4 9 8 5 11 14 23 30 32 33 31 27 24 22 21 19 18 15 12 9 8 9 9 10 11 11 12 12 14 16 17 18 20 21
8 5 2 3 3 5 1 1 1 5 4 5 4 11 21 21 22 27 34 37 32 27 25 23 23 21 18 14 11 8 7 7 8 9 10 11 12 13 15 16 17 19 20 22
2 6 4 4 5 5 3 6 7 8 7 9 8 9 15 27 22 18 31 31 29 27 25 24 22 21 18 14 10 6 4 5 6 7 8 9 10 11 13 14 15 17 17 19
4 5 4 3 5 8 3 4 5 3 5 16 19 19 27 27 8 6 34 32 28 26 26 27 24 21 17 13 9 5 1 2 4 5 6 7 9 10 12 14 16 18 20 22
4 3 5 3 2 7 4 8 7 5 5 17 23 32 32 11 6 22 37 32 28 28 28 26 23 19 16 13 9 6 3 2 3 5 6 7 8 11 13 16 18 20 22 24
5 6 4 3 2 7 13 6 9 2 4 20 25 31 30 14 15 34 39 35 33 32 30 27 24 21 17 14 10 7 4 3 3 4 5 7 9 11 13 15 17 20 24 27
2 5 5 7 6 1 23 2 12 7 14 21 27 31 33 24 25 38 39 36 34 31 29 26 24 21 18 14 11 8 5 4 3 3 4 7 9 11 13 15 19 23 26 27
3 4 2 2 2 4 20 7 13 9 13 21 24 32 34 29 29 38 37 35 33 31 30 27 24 21 17 15 11 8 6 5 4 4 5 6 8 10 13 17 20 22 24 26
3 8 5 4 4 2 11 24 15 13 15 21 23 28 31 28 33 37 37 35 34 31 28 25 22 19 16 14 11 9 8 7 6 6 5 6 7 10 14 17 18 19 22 24
10 7 5 6 16 8 8 33 23 21 23 25 28 31 28 27 34 37 36 33 31 29 27 24 20 18 16 14 12 11 10 10 9 7 6 6 8 11 12 13 14 16 17 17
Wind_Direction
167 112 171 189 182 161 179 243 256 159 220 93 90 75 30 39 51 53 65 70 75 77 81 89 93 102 114 123 137 157 206 264 270 271 323 338 354 360 0 8 15 20 20 12
68 200 207 158 182 121 56 167 234 294 97 79 132 93 78 55 56 60 66 64 65 74 82 81 90 96 104 102 99 100 103 111 122 86 23 6 0 357 4 13 23 30 26 19
160 200 162 154 164 214 199 186 192 177 114 59 129 188 191 63 79 74 76 78 80 75 77 78 80 80 89 92 89 93 101 106 91 63 33 16 7 20 22 34 34 33 24 23
176 134 157 151 157 153 209 210 135 116 122 212 205 251 212 159 112 77 75 80 81 84 91 90 85 75 79 84 87 90 90 90 82 64 51 39 36 35 35 35 42 35 24 22
187 150 153 155 178 163 190 143 129 127 159 61 263 32 194 140 195 162 142 124 97 94 91 85 75 80 73 88 88 82 73 73 68 59 49 62 61 54 45 37 37 49 25 21
126 134 152 187 136 141 129 57 48 63 112 264 213 164 228 188 187 162 163 148 131 115 106 96 82 81 99 82 89 85 72 66 61 58 60 60 57 49 41 34 17 28 5 1
111 168 223 144 100 42 80 85 21 360 344 219 138 174 253 152 145 158 156 143 129 141 137 121 125 135 112 106 97 90 78 68 56 51 56 60 52 47 43 35 18 8 351 348
152 218 177 185 154 170 163 160 155 186 206 222 130 221 213 118 117 132 140 137 132 125 124 124 118 111 103 97 94 85 73 66 57 46 45 41 50 51 42 27 12 6 4 0
147 210 42 191 141 145 176 191 192 101 339 98 208 289 181 144 140 138 141 145 135 130 125 118 113 109 101 93 83 76 70 67 65 58 57 52 41 30 22 10 352 347 349 345
195 125 180 157 121 340 153 156 120 95 183 227 217 248 224 193 181 163 157 154 146 143 138 125 112 103 98 93 89 88 85 81 74 71 67 63 58 53 49 44 40 32 22 6
136 99 193 135 204 170 164 180 196 144 173 196 179 247 22 192 175 170 165 166 157 154 142 131 117 107 102 100 98 94 90 86 82 75 72 69 65 60 54 49 44 39 33 29
182 119 152 194 254 237 222 208 184 167 208 230 224 269 330 159 165 156 159 166 162 156 144 137 128 118 113 108 104 97 92 87 79 72 68 64 61 56 52 46 42 37 31 27
178 275 87 25 342 345 203 197 186 122 97 200 158 251 45 115 139 156 156 165 164 158 151 145 136 131 124 116 108 100 93 85 80 74 66 60 55 49 43 37 32 28 24 20
130 133 169 192 177 140 195 185 183 172 169 171 218 178 205 178 160 157 161 169 167 163 157 150 142 135 127 120 112 105 96 84 72 63 55 49 42 39 36 32 29 25 24 21
143 141 156 173 351 160 182 181 181 197 203 190 202 192 198 190 174 170 170 171 169 167 163 157 150 144 136 127 120 110 97 83 67 53 47 45 39 37 35 33 30 26 21 18
123 128 136 159 178 62 256 221 199 188 170 148 151 237 154 167 161 165 172 174 174 173 168 164 160 153 145 140 128 113 94 77 60 49 46 47 44 39 34 31 26 19 15 12
130 134 136 213 147 129 293 215 196 191 190 156 189 180 145 155 174 177 173 177 178 177 174 170 166 160 156 148 132 118 93 68 51 42 40 37 34 28 25 21 16 13 10 7
164 117 83 126 127 238 218 17 287 177 208 176 109 159 170 177 175 172 182 181 182 180 176 173 169 166 162 153 143 119 87 58 41 31 30 29 27 22 18 13 10 9 6 2
109 158 143 176 186 294 260 200 173 179 245 180 155 131 123 135 137 160 189 189 185 183 179 175 171 169 164 158 149 127 87 48 30 22 24 25 22 17 12 7 6 4 3 1
92 93 140 152 162 203 243 163 161 132 288 180 156 155 147 144 162 196 185 187 185 183 179 174 171 169 168 164 162 155 139 24 3 12 20 20 17 11 5 5 5 4 2 359
134 93 154 162 204 285 183 161 145 117 238 163 165 160 159 172 177 173 175 180 184 180 177 176 174 174 174 177 182 191 214 292 343 4 9 8 7 5 4 4 1 360 357 353
158 145 166 93 100 269 156 119 168 187 114 166 168 169 163 158 148 166 172 175 177 176 176 178 179 181 184 190 198 208 229 274 327 347 351 356 359 360 0 357 354 351 350 350
212 179 173 183 207 246 177 121 190 176 162 171 174 174 174 163 163 170 171 175 176 179 178 181 184 186 190 198 207 217 236 273 307 320 337 345 347 348 350 350 351 351 349 347
262 177 174 76 244 218 202 200 185 180 181 176 181 178 180 170 170 172 172 174 177 181 183 183 186 192 198 204 211 223 241 263 278 294 313 323 332 340 346 351 352 350 351 353
159 143 166 274 265 283 230 209 195 182 178 176 179 182 183 182 175 173 175 179 182 182 184 189 193 197 202 209 219 231 245 257 259 263 282 306 321 339 348 349 352 358 358 357
191 173 170 215 195 186 209 205 191 191 185 184 180 180 184 186 177 179 180 182 183 185 188 191 196 201 209 217 226 233 241 243 242 253 274 293 324 335 344 356 360 359 359 356